[[{"header":{"parameterUnit":"m.s-1","parameterCategory":2,"la1":30.2991,"la2":30.254,"lo1":-89.0895,"lo2":-89.0444,"dy":0.0017,"dx":0.0017,"nx":28,"ny":28,"refTime":"2023-10-25T21:00:00:Z","depth":"0","parameterNumber":2,"parameterNumberName":"U-component_of_CURRENTS"},"data":[0,0,0,0,0,0,0,0,0,0,0,0,0,0,0,0,0,0,0,0,0,0,0,0,0,0,0,0,0,0,0,0,0,0,0,0,0,0,0,0,0,0,0,0,0,0,0,0,0,0,0,0,0,0,0,0,0,0,0.2793,0.2793,0,0.2792,0.2792,0.2792,0.2779,0.2779,0.2779,0.2779,0.2764,0.2763,0.2763,0,0,0,0,0,0,0,0,0,0,0,0,0,0.2775,0.2776,0.2793,0.2793,0.2793,0.2792,0.2792,0.2792,0.2779,0.2779,0.2779,0.2779,0.2764,0.2763,0.2763,0,0,0,0,0,0,0,0,0,0,0,0,0,0.2778,0.2776,0.2793,0.2788,0.2788,0.2792,0.2792,0.2792,0.2779,0.2779,0.2779,0.2778,0.2764,0.2763,0.2763,0.2766,0,0,0.2762,0.2762,0,0,0,0,0,0,0,0,0.2778,0.2779,0.2789,0.2789,0.2788,0.2787,0.278,0.2783,0.2779,0.2781,0.2779,0.2778,0.2771,0.277,0.2768,0.2765,0.2764,0.2762,0.2762,0.2761,0.2761,0,0,0,0,0,0,0,0.2778,0.2778,0.2791,0.2789,0.2789,0.2783,0.2783,0.2781,0.2776,0.2781,0.278,0.2783,0.2771,0.2769,0.2768,0.2764,0.2762,0.2761,0.2761,0.2761,0.278,0.2781,0,0,0,0,0,0,0.2782,0.2778,0.2791,0.2791,0.2784,0.2784,0.2784,0.2786,0.2776,0.2775,0.2783,0.2782,0.277,0.2768,0.2767,0.2784,0.2761,0.2761,0.2761,0.2779,0.278,0.2781,0,0,0,0,0,0,0.2782,0.2783,0.2791,0.2786,0.2787,0.2785,0.2787,0.2786,0.2788,0.2778,0.2777,0.2786,0.2769,0.2768,0.2769,0.2783,0.2761,0.2761,0.2778,0.278,0.2781,0.2809,0,0,0,0,0,0,0.2781,0.2783,0.2787,0.2786,0.2787,0.2803,0.2788,0.2787,0.279,0.2789,0.2781,0.2779,0.2769,0.277,0.2769,0.2782,0.276,0.2778,0.2779,0.278,0.2807,0.2811,0.2814,0,0,0,0,0,0.2781,0.2788,0.2787,0.2789,0.2793,0.2803,0.2804,0.28,0.2791,0.2798,0.2788,0.2779,0.2778,0.277,0.2769,0.2782,0.2777,0.2779,0.278,0.2805,0.281,0.2814,0,0,0,0,0,0,0.2777,0.2788,0.2787,0.2796,0.2804,0.2802,0.2808,0.2804,0.2801,0.28,0.2785,0.2782,0.2791,0.2783,0.2775,0.2793,0.2778,0.2779,0.2797,0.2802,0.2805,0.2829,0.276,0,0,0,0,0,0.278,0.2792,0.2799,0.2806,0.2812,0.2811,0.2814,0.2814,0.2812,0.2811,0.2802,0.2796,0.2797,0.2796,0.2796,0.2802,0.2832,0.2811,0.2815,0.2818,0.2838,0.2881,0.2891,0.2786,0.2786,0.2786,0,0,0.278,0.2789,0.2794,0.2807,0.2811,0.2823,0.2812,0.2824,0.2832,0.281,0.2814,0.2809,0.2802,0.2811,0.2814,0.2805,0.2869,0.282,0.2822,0.2841,0.2884,0.2894,0.2903,0.2787,0.2787,0.2787,0,0,0.2787,0.2795,0.2808,0.282,0.2835,0.2836,0.2842,0.2846,0.2848,0.2854,0.2841,0.2846,0.2841,0.2842,0.2841,0.2865,0.2887,0.2863,0.2898,0.2939,0.2948,0.2957,0.3032,0.3047,0.2862,0.2862,0.2862,0,0.2784,0.2803,0.2813,0.283,0.284,0.2844,0.2857,0.2863,0.2865,0.2871,0.2862,0.2869,0.2859,0.2876,0.2886,0.2874,0.2915,0.2879,0.2945,0.2954,0.2962,0.3037,0.3053,0.2864,0.2864,0.2864,0.2863,0,0.2799,0.2819,0.283,0.2852,0.2863,0.2879,0.289,0.29,0.29,0.2905,0.2925,0.2918,0.2927,0.2921,0.2911,0.296,0.2979,0.2946,0.2936,0.2975,0.3051,0.3067,0.2866,0.2866,0.2865,0.2865,0,0,0.2771,0.2829,0.2831,0.2851,0.2878,0.2888,0.2908,0.2927,0.2957,0.2952,0.2988,0.2982,0.2989,0.2991,0.2981,0.3013,0.3106,0.3011,0.3012,0.3091,0.3238,0.3244,0.3263,0.3086,0.3089,0.309,0.3277,0,0.2776,0.2817,0.2842,0.2875,0.2894,0.2913,0.2941,0.2961,0.2984,0.3022,0.302,0.3054,0.3013,0.3035,0.3058,0.3099,0.3148,0.3062,0.3186,0.3191,0.3194,0.328,0.3158,0.3313,0.3293,0.3296,0.3298,0,0.2766,0.2803,0.2841,0.2901,0.2912,0.2936,0.2985,0.3014,0.3068,0.3096,0.3122,0.3132,0.318,0.314,0.3237,0.3188,0.3226,0.3251,0.3257,0.3266,0.3226,0.3266,0.3344,0.3264,0.3323,0.3321,0.3319,0,0.2731,0.2791,0.2826,0.2844,0.2915,0.2938,0.2974,0.3031,0.3057,0.3154,0.3181,0.3245,0.3286,0.333,0.3377,0.3322,0.3503,0.3424,0.3469,0.3471,0.3395,0.3386,0.3411,0.3506,0.3506,0.3505,0.3505,0,0.2717,0.274,0.2818,0.2841,0.2879,0.294,0.2985,0.3043,0.312,0.3176,0.3217,0.3286,0.3336,0.342,0.3447,0.3539,0.3562,0.3518,0.3526,0.3403,0.3393,0.334,0.3286,0.3512,0.3511,0.351,0.3508,0,0.2666,0.2722,0.2762,0.2847,0.2864,0.2894,0.2955,0.3,0.3092,0.3169,0.32,0.3335,0.3491,0.3543,0.3674,0.3638,0.3626,0.374,0.3618,0.3608,0.3525,0.3477,0.341,0.3304,0.3813,0.3815,0.3816,0,0.2636,0.266,0.274,0.2756,0.2793,0.2836,0.2867,0.2967,0.3022,0.3205,0.325,0.3431,0.3546,0.3746,0.3797,0.3887,0.3724,0.3778,0.3626,0.3548,0.3501,0.3331,0.3231,0.3552,0.3551,0.355,0.3549,0,0.258,0.262,0.2661,0.2698,0.2732,0.2753,0.282,0.2846,0.3001,0.3089,0.3272,0.3388,0.363,0.3703,0.383,0.3848,0.3592,0.3761,0.3695,0.3331,0.3132,0.3023,0.3432,0.3541,0.3542,0.3543,0.3543,0.3543,0.252,0.2538,0.2599,0.2617,0.265,0.2672,0.2661,0.2765,0.285,0.298,0.3206,0.3342,0.3531,0.3715,0.3715,0.3652,0.3595,0.3507,0.3475,0.3326,0.3147,0.357,0.3665,0.3667,0.3668,0.3669,0.367,0,0.2425,0.2471,0.2503,0.2528,0.2519,0.2574,0.2621,0.2608,0.2682,0.2877,0.3024,0.3238,0.3333,0.3442,0.3503,0.3372,0.3163,0.3269,0.2982,0.2909,0.3319,0.323,0.3215,0.3215,0.3215,0.3215,0.3215,0.3215,0.2383,0.2392,0.242,0.2381,0.2394,0.2347,0.235,0.2378,0.2469,0.2603,0.2735,0.2906,0.3176,0.3325,0.3259,0.3168,0.2882,0.2767,0.2741,0.3025,0.3043,0.3059,0.2963,0.2892,0.2892,0.219,0.2185,0.2181]},{"header":{"parameterUnit":"m.s-1","parameterCategory":2,"la1":30.2991,"la2":30.254,"lo1":-89.0895,"lo2":-89.0444,"dy":0.0017,"dx":0.0017,"nx":28,"ny":28,"refTime":"2023-10-25T21:00:00:Z","depth":"0","parameterNumber":3,"parameterNumberName":"V-component_of_CURRENTS"},"data":[0,0,0,0,0,0,0,0,0,0,0,0,0,0,0,0,0,0,0,0,0,0,0,0,0,0,0,0,0,0,0,0,0,0,0,0,0,0,0,0,0,0,0,0,0,0,0,0,0,0,0,0,0,0,0,0,0,0,-0.013,-0.0131,0,-0.022,-0.0221,-0.0222,-0.0263,-0.0263,-0.0263,-0.0263,-0.0377,-0.038,-0.0384,0,0,0,0,0,0,0,0,0,0,0,0,0,-0.0046,-0.0047,-0.013,-0.0131,-0.0132,-0.022,-0.0221,-0.0222,-0.0263,-0.0263,-0.0263,-0.0263,-0.0376,-0.038,-0.0384,0,0,0,0,0,0,0,0,0,0,0,0,0,-0.0103,-0.0047,-0.0129,-0.0163,-0.0167,-0.0219,-0.0221,-0.0222,-0.0263,-0.0263,-0.0263,-0.0263,-0.0375,-0.038,-0.0384,-0.0415,0,0,-0.0399,-0.0401,0,0,0,0,0,0,0,0,-0.01,-0.0106,-0.0157,-0.0161,-0.0166,-0.023,-0.0233,-0.0288,-0.0263,-0.0226,-0.0263,-0.0263,-0.0331,-0.0339,-0.0355,-0.042,-0.0425,-0.0399,-0.0402,-0.0404,-0.0405,0,0,0,0,0,0,0,-0.0096,-0.0103,-0.0165,-0.0158,-0.0164,-0.0192,-0.02,-0.0244,-0.0278,-0.023,-0.0233,-0.0243,-0.0333,-0.0351,-0.0358,-0.0427,-0.0399,-0.0403,-0.0406,-0.0408,-0.0521,-0.0521,0,0,0,0,0,0,-0.0083,-0.0099,-0.0162,-0.0168,-0.0132,-0.0193,-0.0202,-0.0209,-0.0277,-0.0287,-0.0243,-0.0245,-0.0343,-0.0353,-0.0363,-0.0389,-0.0404,-0.0408,-0.0411,-0.0521,-0.0521,-0.0521,0,0,0,0,0,0,-0.0081,-0.0088,-0.0159,-0.0136,-0.0147,-0.0195,-0.0203,-0.0211,-0.0224,-0.0288,-0.0298,-0.0247,-0.0343,-0.0356,-0.0404,-0.0394,-0.041,-0.0414,-0.0521,-0.0521,-0.0521,-0.0449,0,0,0,0,0,0,-0.0078,-0.0086,-0.0087,-0.0135,-0.0148,-0.0183,-0.0203,-0.0213,-0.0231,-0.0234,-0.0295,-0.0305,-0.0344,-0.0396,-0.0408,-0.04,-0.0418,-0.052,-0.0521,-0.0521,-0.0452,-0.0447,-0.0444,0,0,0,0,0,-0.0075,-0.0074,-0.0086,-0.0094,-0.0147,-0.0183,-0.0192,-0.0225,-0.0231,-0.0236,-0.0281,-0.0303,-0.0407,-0.0401,-0.0414,-0.0408,-0.052,-0.0521,-0.0521,-0.0453,-0.0448,-0.0444,0,0,0,0,0,0,-0.0039,-0.008,-0.0094,-0.0106,-0.0138,-0.0189,-0.0198,-0.0219,-0.0258,-0.026,-0.0313,-0.0328,-0.0363,-0.04,-0.0392,-0.0443,-0.0465,-0.0468,-0.0408,-0.0404,-0.04,-0.0369,-0.0422,0,0,0,0,0,-0.0031,-0.004,-0.0084,-0.0094,-0.0106,-0.0149,-0.0167,-0.019,-0.0231,-0.0247,-0.0289,-0.0335,-0.0378,-0.0401,-0.0445,-0.0478,-0.0489,-0.0482,-0.0478,-0.0474,-0.0459,-0.048,-0.0476,-0.0523,-0.0523,-0.0523,0,0,-0.0021,-0.0043,-0.005,-0.0087,-0.0113,-0.0125,-0.0159,-0.0182,-0.0191,-0.0255,-0.0278,-0.0325,-0.0384,-0.0418,-0.0437,-0.0447,-0.0464,-0.0474,-0.0471,-0.0457,-0.048,-0.0476,-0.0471,-0.0523,-0.0523,-0.0523,0,0,0.0001,-0.0022,-0.002,-0.0042,-0.0077,-0.0106,-0.0107,-0.0153,-0.0171,-0.0207,-0.025,-0.0288,-0.0357,-0.0391,-0.0419,-0.0422,-0.0443,-0.0437,-0.0392,-0.0413,-0.0409,-0.0405,-0.0394,-0.0391,-0.0435,-0.0434,-0.0434,0,0.0019,0.0014,-0.0025,-0.0027,-0.0037,-0.0089,-0.0084,-0.0115,-0.0171,-0.0177,-0.0205,-0.0288,-0.034,-0.0372,-0.0375,-0.041,-0.0416,-0.0402,-0.0405,-0.0402,-0.0399,-0.039,-0.0386,-0.0431,-0.0431,-0.0432,-0.0432,0,0.0043,0.0039,0.004,0.0023,0.0006,-0.0001,-0.0044,-0.0059,-0.0088,-0.0118,-0.0154,-0.023,-0.0271,-0.03,-0.0342,-0.0349,-0.0356,-0.0395,-0.0408,-0.039,-0.0381,-0.0379,-0.0426,-0.0427,-0.0428,-0.0429,0,0,0.0092,0.0064,0.0066,0.0073,0.0035,0.0027,0.0016,-0.0003,0.0009,-0.0059,-0.005,-0.014,-0.017,-0.0204,-0.0261,-0.0289,-0.0279,-0.0328,-0.0331,-0.0301,-0.0298,-0.0284,-0.028,-0.0319,-0.0318,-0.0318,-0.0291,0,0.0129,0.0142,0.0117,0.0134,0.014,0.01,0.0099,0.0074,0.0048,0.0041,-0.0036,-0.0061,-0.0138,-0.0153,-0.0192,-0.0253,-0.0273,-0.0281,-0.0335,-0.0335,-0.0313,-0.0277,-0.0272,-0.0246,-0.0289,-0.0289,-0.0289,0,0.017,0.0174,0.0198,0.02,0.0202,0.0204,0.0214,0.0209,0.018,0.016,0.0122,0.0062,0.0016,-0.006,-0.0139,-0.0139,-0.0206,-0.0263,-0.0264,-0.0272,-0.0317,-0.0279,-0.0241,-0.0419,-0.0285,-0.0286,-0.0286,0,0.0232,0.0236,0.0262,0.0259,0.0249,0.0264,0.0266,0.0252,0.0268,0.0246,0.0258,0.0179,0.0166,0.0057,-0.0053,-0.0096,-0.0129,-0.0206,-0.0255,-0.0254,-0.027,-0.027,-0.0396,-0.0263,-0.0263,-0.0263,-0.0263,0,0.0283,0.0307,0.0295,0.0309,0.0353,0.033,0.0379,0.0372,0.038,0.0434,0.0332,0.0367,0.0194,0.0146,0.001,-0.0081,-0.0075,-0.0224,-0.0245,-0.0243,-0.0242,-0.0416,-0.0519,-0.0262,-0.0262,-0.0263,-0.0263,0,0.0345,0.0334,0.0368,0.0373,0.0382,0.0418,0.0451,0.0493,0.0492,0.0564,0.0564,0.0525,0.0487,0.0322,0.0184,0.0034,-0.0176,-0.0128,-0.0093,-0.0111,-0.0353,-0.0451,-0.0571,-0.0641,-0.0187,-0.0186,-0.0186,0,0.0378,0.0399,0.0423,0.0452,0.0457,0.0502,0.0542,0.055,0.0609,0.0683,0.0739,0.0721,0.0752,0.0563,0.0303,0.0092,-0.0105,-0.0078,-0.0181,-0.0343,-0.0468,-0.0548,-0.0605,-0.0167,-0.0167,-0.0166,-0.0166,0,0.0442,0.0447,0.0472,0.0532,0.0578,0.0634,0.0699,0.0761,0.0814,0.0902,0.1046,0.1083,0.0916,0.0732,0.0416,0.023,-0.0204,-0.0075,-0.0265,-0.047,-0.0542,-0.0626,-0.0192,-0.0162,-0.0162,-0.0162,-0.0163,-0.0163,0.0492,0.0522,0.0556,0.0618,0.0678,0.0774,0.0851,0.0955,0.1096,0.1267,0.1293,0.1404,0.1079,0.0668,0.0394,-0.0139,-0.0157,-0.0336,-0.0438,-0.0499,-0.0587,-0.0119,-0.0107,-0.0107,-0.0107,-0.0107,-0.0107,0,0.0554,0.0584,0.0643,0.0719,0.0808,0.0823,0.0965,0.1071,0.1285,0.1461,0.161,0.1533,0.111,0.0638,-0.0062,-0.0445,-0.0609,-0.0664,-0.0808,-0.0848,-0.045,-0.0472,-0.0509,-0.0509,-0.0509,-0.0509,-0.0509,-0.0509,0.0586,0.065,0.0677,0.082,0.0887,0.1025,0.112,0.1304,0.1457,0.1702,0.1799,0.1842,0.1488,0.0239,-0.0644,-0.0856,-0.1117,-0.1164,-0.1295,-0.1072,-0.1051,-0.103,-0.1077,-0.1241,-0.1242,-0.1656,-0.166,-0.1663]}],[{"header":{"parameterUnit":"m.s-1","parameterCategory":2,"la1":30.2991,"la2":30.254,"lo1":-89.0895,"lo2":-89.0444,"dy":0.0017,"dx":0.0017,"nx":28,"ny":28,"refTime":"2023-10-25T21:00:00:Z","depth":"2","parameterNumber":2,"parameterNumberName":"U-component_of_CURRENTS"},"data":[0,0,0,0,0,0,0,0,0,0,0,0,0,0,0,0,0,0,0,0,0,0,0,0,0,0,0,0,0,0,0,0,0,0,0,0,0,0,0,0,0,0,0,0,0,0,0,0,0,0,0,0,0,0,0,0,0,0,0.2409,0.2409,0,0.2436,0.2437,0.2437,0.2455,0.2455,0.2455,0.2455,0.2441,0.2441,0.244,0,0,0,0,0,0,0,0,0,0,0,0,0,0.2386,0.2386,0.2409,0.2409,0.2409,0.2436,0.2437,0.2437,0.2455,0.2455,0.2455,0.2455,0.2441,0.2441,0.244,0,0,0,0,0,0,0,0,0,0,0,0,0,0.2404,0.2386,0.2409,0.2421,0.2422,0.2436,0.2437,0.2437,0.2455,0.2455,0.2455,0.2455,0.2441,0.2441,0.244,0.2436,0,0,0.2438,0.2438,0,0,0,0,0,0,0,0,0.2403,0.2405,0.2419,0.242,0.2421,0.2441,0.2424,0.2435,0.2455,0.2444,0.2455,0.2455,0.2436,0.2436,0.2444,0.2436,0.2435,0.2438,0.2438,0.2438,0.2438,0,0,0,0,0,0,0,0.2402,0.2404,0.2421,0.2419,0.2421,0.2429,0.2432,0.2426,0.244,0.2445,0.2446,0.2447,0.2437,0.2444,0.2443,0.2435,0.2438,0.2438,0.2438,0.2437,0.2529,0.2532,0,0,0,0,0,0,0.2395,0.2403,0.242,0.2422,0.2411,0.243,0.2432,0.2436,0.2441,0.2442,0.2447,0.2448,0.2445,0.2444,0.2443,0.2507,0.2438,0.2437,0.2437,0.2527,0.253,0.2533,0,0,0,0,0,0,0.2395,0.2397,0.2419,0.2412,0.2415,0.243,0.2433,0.2436,0.2455,0.2443,0.2443,0.2464,0.2445,0.2444,0.2463,0.2503,0.2437,0.2437,0.2523,0.2528,0.2531,0.259,0,0,0,0,0,0,0.2394,0.2396,0.2402,0.2411,0.2415,0.2444,0.2433,0.2437,0.2455,0.2456,0.2457,0.2455,0.2445,0.2464,0.2463,0.2501,0.2436,0.252,0.2525,0.253,0.2585,0.2596,0.2605,0,0,0,0,0,0.2393,0.2399,0.2403,0.2405,0.2421,0.2444,0.2448,0.2459,0.2456,0.2474,0.2479,0.2456,0.2497,0.2465,0.2463,0.2502,0.2517,0.2524,0.253,0.258,0.2594,0.2605,0,0,0,0,0,0,0.2392,0.2402,0.2406,0.2415,0.2436,0.2447,0.2467,0.2467,0.2486,0.2489,0.2474,0.2474,0.2512,0.2503,0.2468,0.2551,0.251,0.2516,0.255,0.2562,0.2573,0.2555,0.2436,0,0,0,0,0,0.2394,0.2403,0.2418,0.2428,0.2445,0.2458,0.2469,0.2475,0.2488,0.2497,0.2503,0.2517,0.2535,0.2543,0.2557,0.2586,0.2584,0.262,0.263,0.2639,0.2628,0.2669,0.268,0.2554,0.2553,0.2553,0,0,0.2396,0.2402,0.2408,0.2429,0.245,0.2475,0.2467,0.2493,0.2516,0.2491,0.2536,0.2547,0.2552,0.2597,0.2614,0.2592,0.268,0.2647,0.2653,0.2637,0.2676,0.2688,0.2699,0.2558,0.2557,0.2556,0,0,0.24,0.2418,0.2428,0.2453,0.2482,0.2495,0.2505,0.2533,0.2557,0.2586,0.2592,0.2623,0.2644,0.2667,0.2675,0.275,0.2733,0.277,0.2803,0.2844,0.2854,0.2862,0.2893,0.2903,0.2776,0.2776,0.2776,0,0.2398,0.2419,0.2437,0.246,0.2487,0.2506,0.2535,0.2561,0.2592,0.2616,0.261,0.2672,0.2676,0.273,0.2764,0.2769,0.2787,0.2749,0.2854,0.2863,0.287,0.2899,0.291,0.278,0.2779,0.2779,0.2779,0,0.2423,0.2439,0.2458,0.2493,0.2523,0.2558,0.2595,0.2635,0.2657,0.2674,0.2737,0.2753,0.279,0.2812,0.2801,0.2876,0.2871,0.2859,0.2813,0.2886,0.2913,0.2923,0.2785,0.2784,0.2783,0.2782,0,0,0.2402,0.2462,0.2464,0.2492,0.255,0.2574,0.2634,0.2689,0.2731,0.2763,0.282,0.2859,0.2871,0.2883,0.2899,0.2929,0.3004,0.292,0.292,0.2932,0.3096,0.3056,0.3062,0.3014,0.3016,0.3018,0.3098,0,0.2416,0.2458,0.249,0.2541,0.2574,0.2628,0.2681,0.273,0.278,0.2843,0.287,0.2925,0.2901,0.2936,0.2963,0.3003,0.3032,0.2983,0.3038,0.3039,0.2979,0.3073,0.285,0.2899,0.3108,0.3109,0.3111,0,0.2423,0.2454,0.2504,0.2573,0.2597,0.2637,0.2738,0.2787,0.2872,0.2914,0.2966,0.2991,0.3058,0.3023,0.3101,0.3076,0.3086,0.3098,0.3102,0.3042,0.3017,0.286,0.2909,0.3127,0.3126,0.3125,0.3123,0,0.2394,0.2458,0.2501,0.2529,0.2612,0.2662,0.2718,0.2807,0.2865,0.2972,0.3018,0.3085,0.3144,0.3164,0.3189,0.316,0.3262,0.3227,0.3194,0.3191,0.2997,0.2974,0.3267,0.3267,0.3267,0.3266,0.3266,0,0.2393,0.2414,0.2496,0.2522,0.2585,0.2656,0.2736,0.2809,0.2917,0.2975,0.3054,0.3127,0.3183,0.3241,0.3233,0.3258,0.3304,0.3212,0.3216,0.3016,0.2995,0.3178,0.3167,0.3269,0.3269,0.3268,0.3268,0,0.2334,0.2388,0.2436,0.2537,0.2569,0.2618,0.2737,0.2793,0.2909,0.2998,0.3037,0.3188,0.3275,0.3306,0.337,0.3328,0.3344,0.3331,0.3092,0.3066,0.3231,0.3222,0.3307,0.3307,0.3306,0.3306,0.3305,0,0.2305,0.2328,0.2428,0.2463,0.2512,0.2591,0.2641,0.2772,0.2838,0.3021,0.3063,0.3207,0.3262,0.3362,0.3351,0.3344,0.3364,0.3116,0.301,0.3243,0.3239,0.323,0.3223,0.2784,0.278,0.2776,0.2773,0,0.2254,0.2295,0.2342,0.2411,0.2474,0.2533,0.2627,0.2679,0.2823,0.2895,0.3024,0.3091,0.322,0.3152,0.3178,0.3136,0.3099,0.304,0.3361,0.2813,0.2757,0.2751,0.2759,0.2739,0.2743,0.2745,0.2747,0.2748,0.2211,0.2225,0.2294,0.2363,0.2416,0.247,0.2479,0.2582,0.2655,0.2722,0.287,0.2875,0.2943,0.2889,0.2814,0.2779,0.2975,0.2817,0.2826,0.2838,0.2768,0.2715,0.2676,0.2678,0.2681,0.2683,0.2685,0,0.2135,0.2179,0.2237,0.2289,0.2296,0.2379,0.2445,0.2412,0.2432,0.2544,0.2578,0.2396,0.2388,0.2453,0.2367,0.2379,0.2317,0.2264,0.2157,0.2196,0.2229,0.2121,0.186,0.1857,0.1854,0.1851,0,0,0.2095,0.2112,0.2152,0.2159,0.2191,0.2157,0.2171,0.2145,0.2185,0.2137,0.2128,0.2269,0.2404,0.2087,0.207,0.1953,0.2046,0.188,0.2557,0.2472,0.25,0.2582,0.2466,0,0,0,0,0]},{"header":{"parameterUnit":"m.s-1","parameterCategory":2,"la1":30.2991,"la2":30.254,"lo1":-89.0895,"lo2":-89.0444,"dy":0.0017,"dx":0.0017,"nx":28,"ny":28,"refTime":"2023-10-25T21:00:00:Z","depth":"2","parameterNumber":3,"parameterNumberName":"V-component_of_CURRENTS"},"data":[0,0,0,0,0,0,0,0,0,0,0,0,0,0,0,0,0,0,0,0,0,0,0,0,0,0,0,0,0,0,0,0,0,0,0,0,0,0,0,0,0,0,0,0,0,0,0,0,0,0,0,0,0,0,0,0,0,0,0.0036,0.0035,0,-0.0016,-0.0017,-0.0018,-0.0062,-0.0062,-0.0062,-0.0062,-0.0143,-0.0145,-0.0147,0,0,0,0,0,0,0,0,0,0,0,0,0,0.0057,0.0057,0.0036,0.0035,0.0035,-0.0016,-0.0017,-0.0018,-0.0062,-0.0062,-0.0062,-0.0062,-0.0143,-0.0145,-0.0147,0,0,0,0,0,0,0,0,0,0,0,0,0,0.0028,0.0057,0.0036,0.0009,0.0006,-0.0016,-0.0017,-0.0018,-0.0062,-0.0062,-0.0062,-0.0063,-0.0142,-0.0145,-0.0148,-0.0159,0,0,-0.0157,-0.0158,0,0,0,0,0,0,0,0,0.003,0.0027,0.0013,0.0011,0.0008,-0.0031,-0.0039,-0.0066,-0.0061,-0.0039,-0.0062,-0.0063,-0.0106,-0.0112,-0.0125,-0.0163,-0.0166,-0.0157,-0.0159,-0.016,-0.0161,0,0,0,0,0,0,0,0.0032,0.0029,0.0012,0.0013,0.001,-0.0014,-0.0018,-0.0045,-0.0073,-0.0041,-0.0043,-0.0045,-0.0108,-0.0122,-0.0127,-0.0167,-0.0157,-0.0159,-0.0161,-0.0162,-0.0256,-0.0256,0,0,0,0,0,0,0.0046,0.0031,0.0014,0.0011,0.0021,-0.0014,-0.0019,-0.002,-0.0072,-0.0079,-0.0044,-0.0046,-0.0116,-0.0123,-0.013,-0.0154,-0.016,-0.0163,-0.0164,-0.0255,-0.0256,-0.0257,0,0,0,0,0,0,0.0047,0.0045,0.0016,0.0022,0.0017,-0.0013,-0.0015,-0.0021,-0.0034,-0.0074,-0.0082,-0.0051,-0.0117,-0.0126,-0.0153,-0.0157,-0.0164,-0.0166,-0.0254,-0.0255,-0.0256,-0.0196,0,0,0,0,0,0,0.0048,0.0046,0.0049,0.0023,0.0017,0.0005,-0.0014,-0.0022,-0.0033,-0.0037,-0.0082,-0.009,-0.0118,-0.0148,-0.0156,-0.0161,-0.0169,-0.0253,-0.0255,-0.0256,-0.0197,-0.0195,-0.0194,0,0,0,0,0,0.0049,0.0055,0.0049,0.0047,0.0023,0.0005,-0.0,-0.0025,-0.0033,-0.0038,-0.0068,-0.0088,-0.0163,-0.015,-0.0159,-0.0166,-0.0252,-0.0254,-0.0256,-0.0198,-0.0196,-0.0194,0,0,0,0,0,0,0.0064,0.0051,0.0044,0.0046,0.0029,-0.0001,-0.0006,-0.002,-0.0048,-0.005,-0.0089,-0.0099,-0.0124,-0.0157,-0.0142,-0.02,-0.0215,-0.0218,-0.0168,-0.0166,-0.0164,-0.0131,-0.0171,0,0,0,0,0,0.0071,0.0073,0.0054,0.0055,0.0049,0.0023,0.0014,-0.0001,-0.0026,-0.0039,-0.0072,-0.011,-0.0138,-0.016,-0.019,-0.0218,-0.0233,-0.0234,-0.0231,-0.0229,-0.0211,-0.0237,-0.0234,-0.0262,-0.0262,-0.0262,0,0,0.0077,0.0072,0.0072,0.0059,0.0043,0.0041,0.0015,0.0006,0.0002,-0.0043,-0.0064,-0.0098,-0.0142,-0.0171,-0.0188,-0.02,-0.0233,-0.0231,-0.0229,-0.0211,-0.0238,-0.0235,-0.0232,-0.0263,-0.0263,-0.0263,0,0,0.0094,0.0085,0.0094,0.0084,0.0071,0.0056,0.0056,0.0027,0.001,-0.0011,-0.0043,-0.0072,-0.0128,-0.0156,-0.0176,-0.0183,-0.0214,-0.0209,-0.0177,-0.0203,-0.02,-0.0197,-0.0216,-0.0215,-0.0216,-0.0216,-0.0216,0,0.0102,0.011,0.0092,0.0099,0.0097,0.0067,0.0075,0.0055,0.0019,0.0014,-0.0011,-0.0075,-0.0115,-0.0137,-0.0145,-0.0175,-0.0194,-0.0177,-0.0197,-0.0195,-0.0193,-0.0213,-0.0213,-0.0213,-0.0214,-0.0214,-0.0214,0,0.0125,0.0131,0.0135,0.0136,0.0131,0.013,0.0109,0.0096,0.0073,0.0056,0.0029,-0.0027,-0.0063,-0.0092,-0.012,-0.0136,-0.0155,-0.0181,-0.0192,-0.0186,-0.0208,-0.0209,-0.0209,-0.021,-0.0211,-0.0212,0,0,0.0149,0.015,0.0154,0.0167,0.0151,0.0156,0.0148,0.0141,0.0155,0.0101,0.0105,0.0043,0.0016,-0.001,-0.006,-0.009,-0.0103,-0.013,-0.0133,-0.0129,-0.0156,-0.018,-0.0184,-0.0135,-0.0135,-0.0135,-0.0175,0,0.0172,0.0198,0.0189,0.0217,0.0229,0.0207,0.021,0.0202,0.0184,0.0177,0.012,0.0103,0.0044,0.0027,-0.0012,-0.0072,-0.0104,-0.0089,-0.0179,-0.0181,-0.0188,-0.0185,-0.0155,-0.019,-0.0177,-0.0177,-0.0177,0,0.0202,0.0217,0.0246,0.027,0.0275,0.0284,0.0301,0.0303,0.0286,0.0268,0.0238,0.0197,0.0149,0.0092,0.0001,0.0012,-0.0063,-0.0117,-0.0121,-0.016,-0.0207,-0.0197,-0.0193,-0.018,-0.0179,-0.0179,-0.0179,0,0.0241,0.0264,0.0291,0.0296,0.0312,0.0324,0.0332,0.0333,0.0353,0.033,0.0341,0.0273,0.0248,0.0149,0.0035,0.0016,-0.0064,-0.0107,-0.0199,-0.0202,-0.0199,-0.0202,-0.0172,-0.0172,-0.0172,-0.0171,-0.0171,0,0.0275,0.0302,0.0314,0.0332,0.0378,0.0373,0.042,0.0418,0.0429,0.048,0.0395,0.0418,0.0262,0.0196,0.0071,-0.0056,-0.0039,-0.018,-0.0211,-0.0181,-0.0181,-0.0192,-0.0194,-0.0173,-0.0173,-0.0172,-0.0172,0,0.0317,0.0318,0.036,0.0384,0.0397,0.0433,0.0478,0.0521,0.0519,0.0579,0.0576,0.0528,0.0445,0.0285,0.0134,0.0006,-0.0125,-0.018,-0.0131,-0.0155,-0.0257,-0.0255,-0.0285,-0.0286,-0.0287,-0.0288,-0.0288,0,0.0342,0.0364,0.0405,0.0438,0.045,0.0498,0.054,0.0557,0.0614,0.0667,0.071,0.0646,0.0621,0.038,0.0143,-0.0084,-0.0118,-0.0211,-0.0249,-0.024,-0.0267,-0.0264,-0.0261,-0.0225,-0.0225,-0.0225,-0.0225,0,0.0392,0.0402,0.0437,0.05,0.0549,0.0612,0.0676,0.0734,0.0784,0.0843,0.0926,0.0911,0.0681,0.046,0.0128,-0.0019,-0.0177,-0.0222,-0.0215,-0.0204,-0.0188,-0.0214,-0.0212,-0.0226,-0.0226,-0.0226,-0.0226,-0.0226,0.0434,0.0465,0.0509,0.0573,0.0634,0.0726,0.079,0.0884,0.0992,0.1087,0.1076,0.1059,0.0793,0.0375,0.01,-0.0189,-0.0183,-0.0285,-0.0283,-0.0281,-0.027,-0.0257,-0.0305,-0.0305,-0.0305,-0.0306,-0.0306,0,0.0483,0.0517,0.058,0.0656,0.0734,0.0758,0.0885,0.0957,0.1106,0.1187,0.1234,0.1002,0.0739,0.0436,-0.0001,-0.0267,-0.0279,-0.0339,-0.0298,-0.0295,-0.0293,-0.0282,-0.032,-0.0321,-0.0322,-0.0323,0,0,0.0511,0.0572,0.0599,0.0726,0.0788,0.09,0.0979,0.1097,0.118,0.1258,0.1258,0.1191,0.0837,0.0519,0.0163,-0.0083,-0.0126,-0.0124,-0.0082,0.0011,0.0017,-0.023,-0.0205,0,0,0,0,0]}],[{"header":{"parameterUnit":"m.s-1","parameterCategory":2,"la1":30.2991,"la2":30.254,"lo1":-89.0895,"lo2":-89.0444,"dy":0.0017,"dx":0.0017,"nx":28,"ny":28,"refTime":"2023-10-25T21:00:00:Z","depth":"4","parameterNumber":2,"parameterNumberName":"U-component_of_CURRENTS"},"data":[0,0,0,0,0,0,0,0,0,0,0,0,0,0,0,0,0,0,0,0,0,0,0,0,0,0,0,0,0,0,0,0,0,0,0,0,0,0,0,0,0,0,0,0,0,0,0,0,0,0,0,0,0,0,0,0,0,0,0.1353,0.1354,0,0.1405,0.1405,0.1405,0.1454,0.1454,0.1455,0.1456,0.153,0.1531,0.1532,0,0,0,0,0,0,0,0,0,0,0,0,0,0.1325,0.1325,0.1353,0.1354,0.1355,0.1404,0.1405,0.1405,0.1453,0.1454,0.1455,0.1456,0.1529,0.1531,0.1532,0,0,0,0,0,0,0,0,0,0,0,0,0,0.1351,0.1325,0.1353,0.1386,0.139,0.1404,0.1405,0.1406,0.1453,0.1454,0.1456,0.1457,0.1529,0.1531,0.1532,0.1519,0,0,0.1538,0.1539,0,0,0,0,0,0,0,0,0.1349,0.1351,0.138,0.1384,0.1388,0.1426,0.1423,0.1446,0.1453,0.1427,0.1456,0.1457,0.1498,0.1502,0.1506,0.1523,0.1526,0.1538,0.1539,0.154,0.154,0,0,0,0,0,0,0,0.1347,0.135,0.1371,0.1381,0.1386,0.1409,0.1413,0.1427,0.1453,0.1429,0.1433,0.1442,0.15,0.1504,0.1508,0.1527,0.1538,0.154,0.1541,0.1541,0.1641,0.1642,0,0,0,0,0,0,0.1343,0.1348,0.1369,0.1373,0.1374,0.1408,0.1413,0.1411,0.1453,0.1461,0.1441,0.1444,0.15,0.1506,0.1511,0.1584,0.154,0.1542,0.1543,0.1639,0.1641,0.1643,0,0,0,0,0,0,0.1341,0.1343,0.1367,0.1364,0.1369,0.1408,0.1404,0.1411,0.1448,0.1462,0.1471,0.1475,0.1501,0.1508,0.1552,0.1584,0.1542,0.1544,0.1637,0.164,0.1642,0.1675,0,0,0,0,0,0,0.134,0.1342,0.1354,0.1363,0.1369,0.1388,0.1404,0.1411,0.1451,0.1456,0.1494,0.15,0.1503,0.1549,0.1553,0.1586,0.1546,0.1635,0.1638,0.1641,0.1672,0.1678,0.1684,0,0,0,0,0,0.1339,0.1341,0.1354,0.1358,0.1378,0.1388,0.1393,0.1424,0.1452,0.1463,0.1499,0.15,0.1571,0.1551,0.1556,0.159,0.1634,0.1638,0.1641,0.167,0.1677,0.1684,0,0,0,0,0,0,0.1339,0.1346,0.1361,0.1367,0.1385,0.1398,0.1419,0.1441,0.1477,0.1496,0.1514,0.1522,0.1572,0.1577,0.1556,0.1629,0.1605,0.161,0.1625,0.1633,0.1638,0.1646,0.1547,0,0,0,0,0,0.1342,0.1348,0.1359,0.1371,0.138,0.1407,0.1424,0.1443,0.147,0.1489,0.1519,0.1555,0.1584,0.1606,0.1626,0.1663,0.1678,0.1691,0.1697,0.1702,0.1713,0.1755,0.1765,0.1654,0.1654,0.1654,0,0,0.1347,0.1355,0.1359,0.1373,0.1392,0.1403,0.1421,0.145,0.1476,0.1491,0.1548,0.1574,0.1598,0.164,0.1664,0.1654,0.1744,0.1706,0.171,0.1719,0.176,0.177,0.178,0.1656,0.1656,0.1656,0,0,0.135,0.1366,0.137,0.1385,0.1416,0.1424,0.1439,0.147,0.1504,0.1548,0.1574,0.1625,0.1664,0.1693,0.171,0.1762,0.177,0.1772,0.1811,0.1852,0.1861,0.187,0.191,0.1922,0.1778,0.1779,0.1779,0,0.1366,0.136,0.1376,0.1388,0.1407,0.1436,0.145,0.148,0.1528,0.1568,0.1574,0.1668,0.1689,0.1752,0.1774,0.1775,0.1799,0.1779,0.1859,0.1867,0.1875,0.1915,0.1927,0.1781,0.178,0.178,0.178,0,0.136,0.1372,0.138,0.1399,0.1422,0.1437,0.1475,0.1518,0.1564,0.1602,0.1686,0.1718,0.1781,0.1795,0.1801,0.1876,0.1875,0.1857,0.1838,0.1889,0.1927,0.194,0.1783,0.1783,0.1782,0.1782,0,0,0.1352,0.137,0.1376,0.1394,0.143,0.1447,0.15,0.1552,0.1607,0.1668,0.1743,0.1805,0.1847,0.1871,0.1893,0.1929,0.2008,0.1924,0.1925,0.1959,0.2106,0.1982,0.1983,0.2003,0.2005,0.2007,0.2113,0,0.1347,0.1357,0.1373,0.1404,0.1414,0.1465,0.1512,0.1579,0.1637,0.1717,0.1788,0.1865,0.1869,0.1916,0.1955,0.1994,0.2041,0.1981,0.2057,0.206,0.1938,0.1993,0.2014,0.2122,0.2124,0.2127,0.2128,0,0.1333,0.1342,0.1359,0.1412,0.1426,0.1466,0.1555,0.1598,0.1712,0.1766,0.1858,0.1917,0.2015,0.1996,0.2103,0.2066,0.2101,0.2119,0.2123,0.2003,0.1957,0.206,0.215,0.2148,0.2147,0.2145,0.2144,0,0.1303,0.1338,0.1351,0.1367,0.1426,0.1482,0.1533,0.1635,0.1689,0.1818,0.1878,0.1987,0.2063,0.2117,0.2183,0.2155,0.2279,0.224,0.2163,0.2156,0.2221,0.221,0.2318,0.2318,0.2317,0.2317,0.2317,0,0.1273,0.1293,0.1353,0.1361,0.1421,0.1483,0.1562,0.1633,0.1738,0.1805,0.1918,0.1985,0.2098,0.2184,0.2216,0.2233,0.2317,0.2185,0.2176,0.2233,0.2223,0.223,0.2218,0.2321,0.232,0.2319,0.2319,0,0.1229,0.1258,0.1284,0.1361,0.1405,0.1457,0.1575,0.1621,0.1734,0.1824,0.1879,0.2021,0.2124,0.2218,0.2317,0.2268,0.2298,0.2288,0.2368,0.236,0.214,0.2129,0.2198,0.2195,0.2192,0.2189,0.2187,0,0.1197,0.12,0.128,0.131,0.1356,0.1443,0.1498,0.1615,0.1654,0.1825,0.1856,0.202,0.2103,0.215,0.2242,0.2303,0.2281,0.2282,0.2183,0.2144,0.213,0.2123,0.2117,0.2183,0.2182,0.2181,0.218,0,0.1135,0.1171,0.1187,0.1241,0.131,0.1367,0.1459,0.148,0.1603,0.173,0.181,0.1891,0.2001,0.2077,0.2152,0.2183,0.2263,0.225,0.2255,0.2162,0.2126,0.2113,0.211,0.217,0.2172,0.2173,0.2173,0,0.1097,0.1092,0.1113,0.1159,0.1229,0.1265,0.1327,0.1387,0.145,0.1635,0.1664,0.1835,0.1978,0.2017,0.2081,0.2108,0.2069,0.1994,0.2011,0.2023,0.1916,0.184,0.1802,0,0,0,0,0,0.1055,0.1028,0.1037,0.1069,0.1126,0.1175,0.1278,0.1333,0.1466,0.1485,0.1568,0.167,0.1775,0.1862,0.1858,0.1995,0.2068,0.1979,0.1986,0.2113,0.2125,0.2014,0,0,0,0,0,0,0.1023,0.1016,0.0993,0.0974,0.0987,0.1043,0.1105,0.12,0.1211,0.1367,0.1436,0.1571,0.1698,0.1769,0.1828,0.1855,0.1826,0.209,0.2086,0.2106,0.2117,0.2127,0.2016,0,0,0,0,0]},{"header":{"parameterUnit":"m.s-1","parameterCategory":2,"la1":30.2991,"la2":30.254,"lo1":-89.0895,"lo2":-89.0444,"dy":0.0017,"dx":0.0017,"nx":28,"ny":28,"refTime":"2023-10-25T21:00:00:Z","depth":"4","parameterNumber":3,"parameterNumberName":"V-component_of_CURRENTS"},"data":[0,0,0,0,0,0,0,0,0,0,0,0,0,0,0,0,0,0,0,0,0,0,0,0,0,0,0,0,0,0,0,0,0,0,0,0,0,0,0,0,0,0,0,0,0,0,0,0,0,0,0,0,0,0,0,0,0,0,0.0153,0.0153,0,0.0135,0.0135,0.0135,0.0114,0.0114,0.0114,0.0113,0.0054,0.0053,0.0051,0,0,0,0,0,0,0,0,0,0,0,0,0,0.014,0.0141,0.0153,0.0153,0.0153,0.0135,0.0135,0.0135,0.0114,0.0114,0.0114,0.0113,0.0055,0.0053,0.0051,0,0,0,0,0,0,0,0,0,0,0,0,0,0.0136,0.0141,0.0153,0.0141,0.014,0.0135,0.0135,0.0135,0.0114,0.0114,0.0114,0.0113,0.0055,0.0053,0.0051,0.0045,0,0,0.0045,0.0044,0,0,0,0,0,0,0,0,0.0136,0.0136,0.0143,0.0142,0.0141,0.0128,0.0109,0.0103,0.0114,0.0123,0.0113,0.0113,0.0076,0.0072,0.0068,0.0042,0.0039,0.0045,0.0043,0.0042,0.0042,0,0,0,0,0,0,0,0.0136,0.0137,0.0145,0.0143,0.0141,0.0127,0.0126,0.0108,0.01,0.0122,0.0121,0.0121,0.0075,0.0071,0.0067,0.0039,0.0045,0.0043,0.0041,0.0041,0.0025,0.0026,0,0,0,0,0,0,0.0143,0.0137,0.0145,0.0144,0.0139,0.0128,0.0127,0.0131,0.0101,0.0096,0.0121,0.012,0.0074,0.0069,0.0065,0.0075,0.0042,0.004,0.0039,0.0025,0.0026,0.0026,0,0,0,0,0,0,0.0143,0.0144,0.0146,0.0141,0.014,0.0129,0.0134,0.0131,0.013,0.0101,0.0095,0.0123,0.0074,0.0067,0.0061,0.0072,0.004,0.0038,0.0024,0.0025,0.0026,0.0083,0,0,0,0,0,0,0.0142,0.0144,0.015,0.0142,0.0141,0.015,0.0134,0.0131,0.0131,0.0129,0.01,0.0094,0.0073,0.0064,0.0059,0.0068,0.0036,0.0023,0.0024,0.0026,0.0081,0.0087,0.0092,0,0,0,0,0,0.0142,0.0153,0.015,0.0151,0.0149,0.015,0.0149,0.0138,0.0131,0.0135,0.0121,0.0095,0.007,0.0064,0.0057,0.0066,0.0022,0.0024,0.0026,0.0078,0.0085,0.0092,0,0,0,0,0,0,0.0148,0.0152,0.0149,0.0159,0.0158,0.0147,0.0151,0.0143,0.0136,0.0132,0.0105,0.0099,0.0098,0.0076,0.0069,0.0067,0.0042,0.0043,0.0084,0.0091,0.0096,0.0095,0.0034,0,0,0,0,0,0.0154,0.0164,0.0162,0.017,0.0172,0.0162,0.0161,0.0154,0.0146,0.0143,0.0127,0.011,0.0101,0.0091,0.0078,0.0075,0.0039,0.0077,0.0082,0.0087,0.0083,0.0049,0.005,0.0033,0.0033,0.0033,0,0,0.0158,0.0161,0.0166,0.0172,0.017,0.0179,0.0161,0.0163,0.0171,0.0137,0.0144,0.0129,0.0105,0.0106,0.0103,0.0088,0.0074,0.009,0.0094,0.0086,0.0051,0.0052,0.0054,0.0034,0.0034,0.0033,0,0,0.017,0.0176,0.0187,0.0192,0.0193,0.0191,0.0195,0.019,0.019,0.0192,0.0176,0.0168,0.0149,0.014,0.0131,0.0158,0.0107,0.0155,0.0177,0.0145,0.0146,0.0146,0.0101,0.0096,0.0155,0.0155,0.0155,0,0.0172,0.019,0.0189,0.0203,0.0212,0.0201,0.0216,0.0216,0.0211,0.0212,0.02,0.0182,0.0164,0.0165,0.0178,0.0169,0.0136,0.0154,0.0151,0.0151,0.015,0.0103,0.0098,0.0158,0.0157,0.0157,0.0157,0,0.0194,0.0209,0.0218,0.0235,0.0244,0.0255,0.026,0.0267,0.0262,0.0255,0.0254,0.0232,0.0218,0.0217,0.0204,0.02,0.0173,0.0165,0.0133,0.0155,0.0105,0.0098,0.0162,0.0161,0.016,0.0159,0,0,0.0198,0.0226,0.0231,0.025,0.0264,0.0278,0.0295,0.0307,0.032,0.0304,0.0309,0.0297,0.0276,0.0265,0.0249,0.0223,0.0194,0.0195,0.0192,0.0147,0.0109,0.0091,0.0081,0.0184,0.0183,0.0183,0.0075,0,0.0215,0.0249,0.0259,0.0299,0.032,0.0326,0.0347,0.0355,0.0352,0.0355,0.0325,0.0323,0.0297,0.0293,0.0264,0.0216,0.0179,0.0223,0.0096,0.0092,0.0071,0.0074,0.018,0.007,0.0068,0.0067,0.0066,0,0.0236,0.0259,0.0296,0.0341,0.0352,0.0375,0.041,0.0425,0.042,0.0413,0.0393,0.0368,0.0336,0.031,0.0218,0.0246,0.018,0.0134,0.0128,0.0084,0.0061,0.0043,0.0053,0.0054,0.0055,0.0056,0.0057,0,0.0249,0.029,0.0325,0.034,0.0381,0.0406,0.0429,0.0442,0.0464,0.0448,0.045,0.0399,0.0375,0.0292,0.0198,0.0205,0.0082,0.0078,-0.0007,-0.001,0.0012,0.0013,0.0,0.0001,0.0001,0.0001,0.0001,0,0.0268,0.0299,0.0338,0.036,0.0411,0.0431,0.0478,0.0489,0.0505,0.0528,0.0481,0.0477,0.0369,0.0291,0.0199,0.0071,0.0075,-0.0012,-0.0038,0.0039,0.0044,0.0006,0.0009,-0.0003,-0.0002,-0.0001,-0.0001,0,0.028,0.0299,0.0347,0.0399,0.0419,0.0458,0.0521,0.0553,0.0558,0.0583,0.0582,0.0528,0.0419,0.0298,0.0154,0.0074,-0.0044,-0.0094,-0.0015,-0.0035,-0.0119,-0.0113,-0.0202,-0.0203,-0.0204,-0.0205,-0.0206,0,0.029,0.0312,0.0377,0.0411,0.044,0.0496,0.0538,0.0573,0.0606,0.0616,0.0628,0.0541,0.0482,0.0263,0.0129,-0.0072,-0.0095,-0.0165,-0.0131,-0.0123,-0.014,-0.0131,-0.0123,-0.0208,-0.0209,-0.0209,-0.0209,0,0.0311,0.0331,0.0372,0.0437,0.0491,0.0552,0.0612,0.0641,0.0675,0.0683,0.0664,0.0561,0.0428,0.0261,0.0095,-0.0041,-0.0119,-0.0178,-0.0176,-0.0146,-0.0132,-0.0146,-0.0136,-0.0214,-0.0213,-0.0213,-0.0213,0,0.0329,0.0356,0.0405,0.0465,0.053,0.0591,0.0622,0.0663,0.0695,0.0707,0.0694,0.0567,0.0495,0.0276,0.0132,-0.0016,-0.0048,-0.0083,-0.0087,-0.0084,-0.0013,0.0024,-0.0039,0,0,0,0,0,0.0345,0.0373,0.0429,0.0493,0.0559,0.0594,0.0667,0.0692,0.0721,0.0715,0.071,0.0592,0.0383,0.0295,0.0142,0.0092,-0.0087,-0.0092,-0.0132,-0.0239,-0.0234,-0.0172,0,0,0,0,0,0,0.0355,0.0402,0.0426,0.0504,0.0547,0.062,0.0665,0.0688,0.0684,0.0694,0.0584,0.0548,0.0338,0.0462,0.0135,0.0091,0.0045,-0.0187,-0.019,-0.0242,-0.0237,-0.0233,-0.0168,0,0,0,0,0]}]]